EW5311 Weather Reports


time (UTC)temp
C
wind
direction
speed
KPH
gust
KPH
rain 1hr
cm
rain 24hr
cm
rain mn
cm
humidity
%
barometer
mb
20260507184534 12 359 6.4 20.9 0.00 0.00 0.00 40 1008.1
20260507183033 13 262 6.4 24.1 0.00 0.00 0.00 39 1008.2
20260507181518 12 231 14.5 24.1 0.00 0.00 0.00 41 1008.3
20260507180017 12 214 11.3 29.0 0.00 0.00 0.00 41 1008.4
20260507174527 12 314 12.9 22.5 0.00 0.00 0.00 41 1008.6
20260507173019 12 305 9.7 27.4 0.00 0.00 0.00 40 1008.8
20260507171517 12 307 9.7 32.2 0.00 0.00 0.00 39 1008.9
20260507170010 12 298 8.0 25.7 0.00 0.00 0.00 44 1009.1
20260507164506 11 299 6.4 20.9 0.00 0.00 0.00 46 1009.4
20260507163005 11 291 8.0 24.1 0.00 0.00 0.00 45 1009.5
20260507161546 11 237 9.7 20.9 0.00 0.00 0.00 47 1009.7
20260507160044 11 17 9.7 16.1 0.00 0.00 0.00 49 1009.8
20260507154523 11 224 9.7 25.7 0.00 0.00 0.00 48 1009.9
20260507153022 10 255 8.0 22.5 0.00 0.00 0.00 49 1010.1
20260507151503 11 249 8.0 17.7 0.00 0.00 0.00 50 1010.3
20260507150001 11 322 9.7 17.7 0.00 0.00 0.00 50 1010.4
20260507144542 10 204 11.3 24.1 0.00 0.00 0.00 51 1010.6
20260507143042 10 359 11.3 27.4 0.00 0.00 0.00 53 1010.9
20260507141525 9 239 4.8 24.1 0.00 0.00 0.00 56 1010.9
20260507140024 9 310 9.7 20.9 0.00 0.05 0.00 55 1011.0
20260507134523 9 318 14.5 30.6 0.00 0.05 0.00 54 1011.2
20260507133020 8 216 0.0 9.7 0.00 0.05 0.00 61 1011.1
20260507131523 8 31 1.6 6.4 0.00 0.05 0.00 63 1011.1
20260507130013 7 293 0.0 6.4 0.00 0.13 0.00 68 1011.3
20260507124511 6 316 3.2 4.8 0.00 0.13 0.00 76 1011.3
20260507123108 5 289 3.2 6.4 0.00 0.13 0.00 85 1011.5
20260507121509 3 301 0.0 4.8 0.00 0.13 0.00 94 1011.4
20260507120100 2 302 0.0 4.8 0.00 0.38 0.00 95 1011.3
20260507114611 1 301 1.6 4.8 0.00 0.38 0.00 95 1011.4
20260507113053 0 301 0.0 3.2 0.00 0.38 0.00 95 1011.3
20260507111551 0 299 0.0 3.2 0.00 0.38 0.00 94 1011.2
20260507110052 0 299 0.0 3.2 0.00 0.51 0.00 94 1011.1
20260507104546 0 301 1.6 3.2 0.00 0.51 0.00 94 1011.0
20260507103045 0 301 1.6 3.2 0.00 0.51 0.00 93 1010.9
20260507101541 0 301 0.0 1.6 0.00 0.51 0.00 93 1010.7
20260507100030 0 301 0.0 1.6 0.00 0.71 0.00 93 1010.6
20260507094518 0 301 1.6 3.2 0.00 0.71 0.00 93 1010.6
20260507093100 0 359 0.0 1.6 0.00 0.71 0.00 93 1010.4
20260507091600 0 302 1.6 3.2 0.00 0.71 0.00 92 1010.6
20260507090039 0 301 0.0 3.2 0.00 0.76 0.00 91 1010.4
20260507084536 0 301 0.0 3.2 0.00 0.76 0.00 91 1010.5
20260507083016 1 301 0.0 1.6 0.00 0.76 0.00 90 1010.6
20260507081532 1 302 0.0 1.6 0.00 0.76 0.00 89 1010.6
20260507080057 1 301 0.0 3.2 0.00 0.97 0.00 88 1010.6
20260507074605 2 302 0.0 1.6 0.00 0.97 0.00 86 1010.5
20260507073046 2 302 0.0 1.6 0.00 0.97 0.00 84 1010.3
20260507071543 3 301 0.0 0.0 0.00 0.97 0.00 81 1010.3
20260507070038 4 301 0.0 1.6 0.00 1.09 0.00 80 1010.3
20260507064534 5 297 0.0 3.2 0.00 1.09 0.00 78 1010.4
20260507063031 5 302 1.6 4.8 0.00 1.09 0.00 76 1010.5
20260507061629 5 300 3.2 6.4 0.00 1.09 0.00 74 1010.5
20260507060016 5 301 3.2 8.0 0.00 1.09 0.00 73 1010.7
20260507054515 6 304 3.2 8.0 0.00 1.09 0.00 73 1010.9
20260507053013 6 295 1.6 6.4 0.00 1.09 0.00 74 1010.8
20260507051511 6 292 3.2 8.0 0.00 1.09 0.00 72 1010.9
20260507050023 6 296 3.2 9.7 0.00 1.09 1.09 72 1010.9
20260507044508 6 296 4.8 8.0 0.00 1.09 1.09 72 1010.9
20260507043006 6 298 3.2 8.0 0.00 1.09 1.09 72 1010.9
20260507041504 6 297 3.2 12.9 0.00 1.09 1.09 71 1010.9
20260507040051 6 291 3.2 6.4 0.00 1.09 1.09 72 1010.7
20260507034557 6 293 1.6 6.4 0.00 1.09 1.09 73 1010.6
20260507033053 6 283 1.6 4.8 0.00 1.09 1.09 73 1010.6
20260507031603 6 303 1.6 6.4 0.00 1.09 1.09 74 1010.3
20260507030053 6 301 0.0 1.6 0.00 1.09 1.09 77 1010.2
20260507024546 6 302 0.0 3.2 0.00 1.09 1.09 76 1010.3
20260507023042 7 301 1.6 4.8 0.00 1.09 1.09 71 1010.1
20260507021540 7 301 3.2 8.0 0.00 1.09 1.09 66 1010.1
20260507020039 7 301 3.2 8.0 0.00 1.09 1.09 65 1010.2
20260507014546 7 287 4.8 14.5 0.00 1.09 1.09 68 1010.2
20260507013023 7 287 0.0 1.6 0.00 1.09 1.09 72 1010.3
20260507011522 7 287 1.6 8.0 0.00 1.09 1.09 69 1010.4
20260507010020 8 291 3.2 6.4 0.00 1.09 1.09 66 1010.3
20260507004521 8 286 3.2 9.7 0.00 1.09 1.09 64 1010.0
20260507003019 8 280 9.7 16.1 0.00 1.09 1.09 64 1010.3
20260507001521 8 315 4.8 12.9 0.00 1.09 1.09 62 1009.9
20260507000011 8 295 3.2 12.9 0.00 1.09 1.09 62 1009.6
20260506234508 9 300 4.8 9.7 0.00 1.09 1.09 64 1009.3
20260506233102 9 301 6.4 17.7 0.00 1.09 1.09 65 1008.8
20260506231544 10 287 6.4 17.7 0.00 1.09 1.09 74 1008.3
20260506230033 10 297 3.2 6.4 0.00 1.09 1.09 77 1008.3
20260506224532 10 283 1.6 9.7 0.00 1.09 1.09 77 1008.1
20260506223030 10 252 8.0 16.1 0.00 1.09 1.09 76 1008.1
20260506221530 10 287 4.8 9.7 0.00 1.09 1.09 78 1007.8
20260506220029 10 291 4.8 8.0 0.00 1.09 1.09 81 1008.0
20260506214526 10 282 1.6 12.9 0.00 1.09 1.09 82 1007.6
20260506213025 9 268 1.6 11.3 0.00 1.09 1.09 81 1007.4
20260506211523 10 297 3.2 6.4 0.00 1.09 1.09 81 1007.1
20260506210009 10 314 6.4 14.5 0.00 1.09 1.09 81 1007.0
20260506204505 10 266 9.7 14.5 0.00 1.09 1.09 81 1007.1
20260506203046 10 311 8.0 17.7 0.00 1.09 1.09 81 1007.1
20260506201543 10 260 6.4 14.5 0.00 1.09 1.09 83 1006.9
20260506200023 10 260 6.4 14.5 0.00 1.09 1.09 85 1006.7
20260506194521 10 258 11.3 19.3 0.00 1.09 1.09 85 1006.5
20260506193106 10 295 12.9 19.3 0.00 1.09 1.09 85 1006.3
20260506191558 10 235 6.4 12.9 0.00 1.09 1.09 86 1006.0
20260506190050 10 303 4.8 12.9 0.00 1.09 1.09 86 1006.0